This is the latest recevied weather packets stored in our database for station/object K3PPP. If no packets are shown the sender has not sent any weather packets the latest 10 day(s).
| Time | Temp. | Humidity | Pressure | Rain* | Wind** | Luminosity | Snow |
|---|---|---|---|---|---|---|---|
| 1777469283 | 13.33° C | 99% | 1011.2 hPa | 0 mm | - | 30 W/m² | - |
| 1777468979 | 13.33° C | 99% | 1011.4 hPa | 0 mm | - | 55 W/m² | - |
| 1777468675 | 13.33° C | 99% | 1011.3 hPa | 0 mm | - | 97 W/m² | - |
| 1777468372 | 13.33° C | 99% | 1011.2 hPa | 0 mm | - | 101 W/m² | - |
| 1777468068 | 13.33° C | 99% | 1011 hPa | 0 mm | - | 93 W/m² | - |
| 1777467764 | 12.78° C | 99% | 1011.2 hPa | 0 mm | - | 77 W/m² | - |
| 1777467459 | 12.78° C | 99% | 1011.3 hPa | 0 mm | - | 59 W/m² | - |
| 1777467154 | 12.78° C | 99% | 1011.2 hPa | 0 mm | - | 47 W/m² | - |
| 1777466852 | 12.78° C | 99% | 1011.1 hPa | 0 mm | - | 32 W/m² | - |
| 1777466550 | 12.78° C | 99% | 1011.2 hPa | 0 mm | - | 32 W/m² | - |
| 1777466246 | 12.78° C | 99% | 1011.1 hPa | 0 mm | - | 34 W/m² | - |
| 1777465942 | 12.22° C | 99% | 1011.1 hPa | 0 mm | - | 41 W/m² | - |
| 1777465639 | 12.22° C | 99% | 1011.1 hPa | 0 mm | - | 41 W/m² | - |
| 1777465335 | 12.22° C | 99% | 1011.4 hPa | 0 mm | - | 37 W/m² | - |
| 1777465033 | 12.22° C | 99% | 1011.3 hPa | 0 mm | - | 32 W/m² | - |
| 1777464728 | 12.22° C | 99% | 1011.3 hPa | 0 mm | - | 30 W/m² | - |
| 1777464425 | 12.22° C | 99% | 1011.5 hPa | 0 mm | - | 28 W/m² | - |
| 1777464121 | 12.22° C | 99% | 1011.9 hPa | 0 mm | - | 27 W/m² | - |
| 1777463821 | 12.22° C | 99% | 1011.7 hPa | 0 mm | - | 29 W/m² | - |
| 1777463516 | 12.22° C | 99% | 1011.9 hPa | 0 mm | - | 37 W/m² | - |
| 1777463211 | 12.22° C | 99% | 1011.8 hPa | 0 mm | - | 33 W/m² | - |
| 1777462907 | 12.22° C | 99% | 1012.1 hPa | 0 mm | - | 29 W/m² | - |
| 1777462604 | 12.22° C | 99% | 1012.2 hPa | 0 mm | - | 29 W/m² | - |
| 1777462300 | 12.22° C | 99% | 1012.2 hPa | 0 mm | - | 27 W/m² | - |
| 1777461995 | 12.22° C | 99% | 1012.3 hPa | 0 mm | - | 27 W/m² | - |
* Rain latest hour (hover to see other rain measurements)
** Current wind speed in m/s (hover to see current wind gust speed)